| time (UTC) | temp F | wind direction | speed MPH | gust MPH | rain 1hr in | rain 24hr in | rain mn in | humidity % | barometer mb |
| 20260904032204 | 65 | 113 | 0.0 | 0.0 | 0.00 | 0.05 | 0.05 | 96 | 1011.5 |
| 20260904031204 | 65 | 113 | 0.0 | 0.0 | 0.00 | 0.05 | 0.05 | 96 | 1011.4 |
| 20260904030704 | 65 | 98 | 0.0 | 0.0 | 0.00 | 0.05 | 0.05 | 96 | 1011.6 |
| 20260904030204 | 65 | 127 | 0.0 | 0.0 | 0.00 | 0.05 | 0.05 | 96 | 1011.7 |
| 20260904025704 | 65 | 124 | 0.0 | 0.0 | 0.00 | 0.05 | 0.05 | 96 | 1011.9 |
| 20260904025204 | 65 | 122 | 0.0 | 0.0 | 0.00 | 0.05 | 0.05 | 96 | 1011.9 |
| 20260904024704 | 66 | 93 | 0.0 | 0.0 | 0.00 | 0.05 | 0.05 | 96 | 1011.9 |
| 20260904024204 | 66 | 82 | 0.0 | 0.0 | 0.00 | 0.05 | 0.05 | 96 | 1011.9 |
| 20260904023705 | 66 | 95 | 0.0 | 0.0 | 0.00 | 0.05 | 0.05 | 96 | 1012.1 |
| 20260904023204 | 66 | 118 | 0.0 | 0.0 | 0.00 | 0.05 | 0.05 | 96 | 1012.2 |
| 20260904022704 | 66 | 118 | 0.0 | 0.0 | 0.00 | 0.05 | 0.05 | 96 | 1012.2 |
| 20260904022204 | 66 | 114 | 0.0 | 0.0 | 0.00 | 0.05 | 0.05 | 96 | 1011.9 |
| 20260904021704 | 66 | 85 | 0.0 | 0.0 | 0.00 | 0.05 | 0.05 | 96 | 1011.8 |
| 20260904021204 | 66 | 123 | 0.0 | 0.0 | 0.00 | 0.05 | 0.05 | 95 | 1011.9 |
| 20260904020704 | 66 | 90 | 0.0 | 0.0 | 0.00 | 0.05 | 0.05 | 95 | 1011.8 |
| 20260904020204 | 66 | 92 | 0.0 | 0.0 | 0.00 | 0.05 | 0.05 | 95 | 1011.8 |
| 20260904015704 | 66 | 120 | 0.0 | 0.0 | 0.00 | 0.05 | 0.05 | 95 | 1011.8 |
| 20260904015204 | 67 | 123 | 0.0 | 0.0 | 0.00 | 0.05 | 0.05 | 95 | 1012.0 |
| 20260904014704 | 67 | 93 | 0.0 | 0.0 | 0.00 | 0.05 | 0.05 | 95 | 1012.0 |
| 20260904014203 | 67 | 93 | 0.0 | 0.0 | 0.00 | 0.05 | 0.05 | 94 | 1011.9 |
| 20260904013704 | 67 | 76 | 0.0 | 0.0 | 0.00 | 0.05 | 0.05 | 94 | 1011.9 |
| 20260904013204 | 67 | 112 | 0.0 | 0.0 | 0.00 | 0.05 | 0.05 | 94 | 1011.9 |
| 20260904012704 | 67 | 99 | 0.0 | 0.0 | 0.00 | 0.05 | 0.05 | 94 | 1011.9 |
| 20260904012204 | 68 | 116 | 0.0 | 0.0 | 0.00 | 0.05 | 0.05 | 93 | 1012.0 |
| 20260904011704 | 68 | 133 | 0.0 | 0.0 | 0.00 | 0.05 | 0.05 | 93 | 1012.1 |
| 20260904010705 | 68 | 128 | 0.0 | 0.0 | 0.00 | 0.05 | 0.05 | 94 | 1012.1 |
| 20260904010204 | 67 | 120 | 0.0 | 0.0 | 0.00 | 0.05 | 0.05 | 95 | 1012.1 |
| 20260904005704 | 67 | 115 | 0.0 | 0.0 | 0.00 | 0.05 | 0.05 | 95 | 1012.0 |
| 20260904005204 | 67 | 130 | 0.0 | 0.0 | 0.00 | 0.05 | 0.05 | 94 | 1012.1 |
| 20260904004704 | 68 | 114 | 0.0 | 0.0 | 0.00 | 0.05 | 0.05 | 94 | 1012.2 |
| 20260904004204 | 68 | 100 | 0.0 | 0.0 | 0.00 | 0.05 | 0.05 | 94 | 1012.2 |
| 20260904003704 | 68 | 109 | 0.0 | 0.0 | 0.00 | 0.05 | 0.05 | 94 | 1012.1 |
| 20260904003204 | 68 | 112 | 0.0 | 0.0 | 0.00 | 0.05 | 0.05 | 94 | 1012.2 |
| 20260904002704 | 68 | 125 | 0.0 | 0.0 | 0.00 | 0.05 | 0.05 | 93 | 1012.2 |
| 20260904002204 | 68 | 99 | 0.0 | 0.0 | 0.00 | 0.05 | 0.05 | 92 | 1012.1 |
| 20260904001704 | 68 | 319 | 0.0 | 0.0 | 0.00 | 0.05 | 0.05 | 91 | 1012.0 |
| 20260904001203 | 69 | 301 | 0.0 | 0.0 | 0.00 | 0.05 | 0.05 | 91 | 1011.9 |
| 20260904000704 | 69 | 301 | 0.0 | 0.0 | 0.00 | 0.05 | 0.05 | 90 | 1011.9 |
| 20260904000204 | 69 | 301 | 0.0 | 0.0 | 0.00 | 0.05 | 0.05 | 89 | 1011.7 |
| 20260903235704 | 69 | 301 | 0.0 | 0.0 | 0.00 | 0.05 | 0.05 | 89 | 1011.8 |
| 20260903235204 | 70 | 301 | 0.0 | 0.0 | 0.00 | 0.05 | 0.05 | 87 | 1011.7 |
| 20260903234703 | 70 | 301 | 0.0 | 0.0 | 0.00 | 0.05 | 0.05 | 86 | 1011.6 |
| 20260903234204 | 70 | 301 | 0.0 | 0.0 | 0.00 | 0.05 | 0.05 | 85 | 1011.3 |
| 20260903233704 | 71 | 301 | 0.0 | 0.0 | 0.00 | 0.05 | 0.05 | 85 | 1011.2 |
| 20260903233204 | 71 | 301 | 0.0 | 0.0 | 0.00 | 0.05 | 0.05 | 84 | 1011.3 |
| 20260903232704 | 72 | 301 | 0.0 | 0.0 | 0.00 | 0.05 | 0.05 | 82 | 1011.3 |
| 20260903232204 | 72 | 301 | 0.0 | 0.0 | 0.00 | 0.05 | 0.05 | 81 | 1011.3 |
| 20260903231704 | 72 | 301 | 0.0 | 0.0 | 0.00 | 0.05 | 0.05 | 81 | 1011.3 |
| 20260903231204 | 73 | 301 | 0.0 | 0.0 | 0.00 | 0.05 | 0.05 | 80 | 1011.4 |
| 20260903230705 | 73 | 301 | 0.0 | 0.0 | 0.00 | 0.05 | 0.05 | 79 | 1011.5 |
| 20260903230204 | 73 | 301 | 0.0 | 0.0 | 0.00 | 0.05 | 0.05 | 79 | 1011.7 |
| 20260903225704 | 74 | 301 | 0.0 | 0.0 | 0.00 | 0.05 | 0.05 | 78 | 1011.5 |
| 20260903225204 | 74 | 301 | 1.0 | 1.0 | 0.00 | 0.05 | 0.05 | 77 | 1011.5 |
| 20260903224704 | 74 | 301 | 1.0 | 3.0 | 0.00 | 0.05 | 0.05 | 77 | 1011.5 |
| 20260903224203 | 75 | 301 | 1.0 | 2.0 | 0.00 | 0.05 | 0.05 | 76 | 1011.4 |
| 20260903223704 | 75 | 304 | 0.0 | 3.0 | 0.00 | 0.05 | 0.05 | 77 | 1011.6 |
| 20260903223204 | 76 | 299 | 1.0 | 2.0 | 0.00 | 0.05 | 0.05 | 77 | 1011.6 |
| 20260903222705 | 76 | 303 | 2.0 | 3.0 | 0.00 | 0.05 | 0.05 | 76 | 1011.6 |
| 20260903222204 | 77 | 298 | 1.0 | 2.0 | 0.00 | 0.05 | 0.05 | 77 | 1011.4 |
| 20260903221705 | 77 | 285 | 1.0 | 3.0 | 0.00 | 0.05 | 0.05 | 78 | 1011.4 |
| 20260903221205 | 78 | 293 | 2.0 | 5.0 | 0.00 | 0.05 | 0.05 | 77 | 1011.4 |
| 20260903220705 | 78 | 297 | 2.0 | 3.0 | 0.00 | 0.05 | 0.05 | 77 | 1011.4 |
| 20260903214705 | 80 | 323 | 0.0 | 1.0 | 0.00 | 0.05 | 0.05 | 73 | 1011.3 |
| 20260903214205 | 80 | 289 | 2.0 | 5.0 | 0.00 | 0.05 | 0.05 | 77 | 1011.4 |
| 20260903213705 | 81 | 288 | 4.0 | 7.0 | 0.00 | 0.05 | 0.05 | 77 | 1011.5 |
| 20260903213205 | 82 | 299 | 2.0 | 5.0 | 0.00 | 0.05 | 0.05 | 76 | 1011.6 |
| 20260903212705 | 82 | 307 | 0.0 | 2.0 | 0.00 | 0.05 | 0.05 | 78 | 1011.5 |
| 20260903212205 | 81 | 251 | 0.0 | 0.0 | 0.00 | 0.05 | 0.05 | 78 | 1011.5 |
| 20260903211705 | 81 | 308 | 0.0 | 0.0 | 0.00 | 0.05 | 0.05 | 80 | 1011.5 |
| 20260903211205 | 80 | 308 | 0.0 | 0.0 | 0.00 | 0.05 | 0.05 | 81 | 1011.6 |
| 20260903210705 | 79 | 308 | 0.0 | 0.0 | 0.00 | 0.05 | 0.05 | 82 | 1011.5 |
| 20260903210205 | 80 | 308 | 0.0 | 0.0 | 0.00 | 0.05 | 0.05 | 80 | 1011.6 |
| 20260903204705 | 81 | 118 | 0.0 | 2.0 | 0.00 | 0.05 | 0.05 | 79 | 1011.5 |
| 20260903204205 | 81 | 327 | 0.0 | 0.0 | 0.00 | 0.05 | 0.05 | 79 | 1011.4 |
| 20260903203705 | 81 | 329 | 1.0 | 3.0 | 0.00 | 0.05 | 0.05 | 77 | 1011.4 |
| 20260903202205 | 82 | 279 | 3.0 | 6.0 | 0.00 | 0.05 | 0.05 | 77 | 1011.3 |
| 20260903201705 | 81 | 310 | 2.0 | 3.0 | 0.00 | 0.05 | 0.05 | 78 | 1011.3 |
| 20260903201205 | 81 | 349 | 1.0 | 3.0 | 0.00 | 0.05 | 0.05 | 81 | 1011.2 |
| 20260903200705 | 80 | 106 | 0.0 | 2.0 | 0.00 | 0.05 | 0.05 | 84 | 1011.4 |
| 20260903200205 | 80 | 76 | 0.0 | 0.0 | 0.00 | 0.05 | 0.05 | 82 | 1011.4 |
| 20260903195705 | 80 | 111 | 0.0 | 1.0 | 0.00 | 0.05 | 0.05 | 82 | 1011.6 |
| 20260903195204 | 80 | 178 | 1.0 | 3.0 | 0.00 | 0.05 | 0.05 | 80 | 1011.5 |
| 20260903194705 | 80 | 118 | 1.0 | 3.0 | 0.00 | 0.05 | 0.05 | 80 | 1011.5 |
| 20260903194205 | 80 | 230 | 1.0 | 2.0 | 0.00 | 0.05 | 0.05 | 78 | 1011.6 |
| 20260903193706 | 80 | 257 | 2.0 | 3.0 | 0.00 | 0.05 | 0.05 | 78 | 1011.4 |
| 20260903193204 | 81 | 239 | 3.0 | 7.0 | 0.00 | 0.05 | 0.05 | 78 | 1011.6 |
| 20260903192705 | 81 | 269 | 1.0 | 3.0 | 0.00 | 0.05 | 0.05 | 79 | 1011.6 |
| 20260903191705 | 81 | 252 | 1.0 | 3.0 | 0.00 | 0.05 | 0.05 | 80 | 1011.7 |
| 20260903191204 | 79 | 276 | 1.0 | 2.0 | 0.00 | 0.05 | 0.05 | 81 | 1011.8 |
| 20260903190706 | 78 | 250 | 1.0 | 2.0 | 0.00 | 0.05 | 0.05 | 84 | 1011.8 |
| 20260903190205 | 78 | 286 | 1.0 | 2.0 | 0.00 | 0.05 | 0.05 | 84 | 1011.9 |
| 20260903185705 | 78 | 286 | 1.0 | 2.0 | 0.00 | 0.05 | 0.05 | 84 | 1012.0 |
| 20260903185205 | 77 | 286 | 0.0 | 1.0 | 0.00 | 0.05 | 0.05 | 83 | 1011.9 |
| 20260903184704 | 78 | 286 | 1.0 | 1.0 | 0.00 | 0.05 | 0.05 | 84 | 1012.0 |
| 20260903183204 | 79 | 22 | 0.0 | 1.0 | 0.00 | 0.05 | 0.05 | 83 | 1012.1 |
| 20260903182205 | 79 | 22 | 0.0 | 2.0 | 0.00 | 0.05 | 0.05 | 80 | 1012.1 |
| 20260903181706 | 79 | 60 | 1.0 | 2.0 | 0.00 | 0.05 | 0.05 | 79 | 1012.1 |
| 20260903181204 | 80 | 238 | 1.0 | 3.0 | 0.00 | 0.05 | 0.05 | 80 | 1012.1 |
| 20260903180705 | 79 | 232 | 0.0 | 1.0 | 0.00 | 0.05 | 0.05 | 79 | 1012.1 |
| 20260903175705 | 78 | 239 | 1.0 | 2.0 | 0.00 | 0.05 | 0.05 | 80 | 1012.2 |
| 20260903175205 | 78 | 273 | 1.0 | 2.0 | 0.00 | 0.05 | 0.05 | 81 | 1012.3 |
| 20260903174704 | 78 | 273 | 2.0 | 3.0 | 0.00 | 0.05 | 0.05 | 80 | 1012.3 |
| 20260903174205 | 78 | 273 | 1.0 | 1.0 | 0.00 | 0.05 | 0.05 | 82 | 1012.4 |
| 20260903173205 | 78 | 243 | 1.0 | 3.0 | 0.00 | 0.05 | 0.05 | 81 | 1012.4 |
| 20260903172705 | 78 | 279 | 0.0 | 0.0 | 0.00 | 0.05 | 0.05 | 81 | 1012.5 |
| 20260903172205 | 78 | 272 | 0.0 | 0.0 | 0.00 | 0.05 | 0.05 | 82 | 1012.6 |
| 20260903171705 | 77 | 235 | 0.0 | 0.0 | 0.00 | 0.05 | 0.05 | 83 | 1012.6 |
| 20260903171205 | 77 | 244 | 0.0 | 3.0 | 0.00 | 0.05 | 0.05 | 81 | 1012.6 |
| 20260903170705 | 77 | 155 | 1.0 | 2.0 | 0.00 | 0.05 | 0.05 | 83 | 1012.7 |
| 20260903170204 | 77 | 275 | 0.0 | 1.0 | 0.00 | 0.05 | 0.05 | 83 | 1012.7 |
| 20260903165704 | 77 | 284 | 0.0 | 0.0 | 0.00 | 0.05 | 0.05 | 83 | 1012.7 |
| 20260903165204 | 76 | 284 | 0.0 | 1.0 | 0.00 | 0.05 | 0.05 | 81 | 1012.7 |
| 20260903164705 | 76 | 284 | 1.0 | 2.0 | 0.00 | 0.05 | 0.05 | 83 | 1012.8 |
| 20260903164204 | 76 | 284 | 0.0 | 1.0 | 0.00 | 0.05 | 0.05 | 82 | 1012.6 |
| 20260903163705 | 76 | 257 | 0.0 | 2.0 | 0.00 | 0.05 | 0.05 | 82 | 1012.8 |
| 20260903163205 | 76 | 234 | 0.0 | 1.0 | 0.00 | 0.05 | 0.05 | 84 | 1012.8 |
| 20260903162704 | 76 | 172 | 1.0 | 3.0 | 0.00 | 0.05 | 0.05 | 83 | 1012.9 |
| 20260903162204 | 76 | 202 | 1.0 | 3.0 | 0.00 | 0.05 | 0.05 | 85 | 1012.8 |
| 20260903161705 | 75 | 220 | 1.0 | 2.0 | 0.00 | 0.05 | 0.05 | 85 | 1012.9 |
| 20260903161204 | 75 | 245 | 1.0 | 2.0 | 0.00 | 0.05 | 0.05 | 86 | 1013.0 |
| 20260903160704 | 75 | 234 | 0.0 | 1.0 | 0.00 | 0.05 | 0.05 | 86 | 1013.0 |
| 20260903160205 | 75 | 237 | 1.0 | 2.0 | 0.00 | 0.05 | 0.05 | 85 | 1013.1 |
| 20260903155705 | 75 | 230 | 0.0 | 1.0 | 0.00 | 0.05 | 0.05 | 86 | 1013.1 |
| 20260903154704 | 74 | 231 | 1.0 | 3.0 | 0.00 | 0.05 | 0.05 | 87 | 1013.0 |
| 20260903154205 | 74 | 205 | 1.0 | 2.0 | 0.00 | 0.05 | 0.05 | 86 | 1013.0 |
| 20260903153205 | 74 | 228 | 0.0 | 3.0 | 0.00 | 0.05 | 0.05 | 88 | 1013.1 |
| 20260903152705 | 74 | 180 | 1.0 | 3.0 | 0.00 | 0.05 | 0.05 | 87 | 1013.1 |
| 20260903152205 | 74 | 234 | 1.0 | 2.0 | 0.00 | 0.05 | 0.05 | 86 | 1013.0 |
| 20260903151704 | 74 | 227 | 1.0 | 2.0 | 0.00 | 0.05 | 0.05 | 86 | 1013.1 |
| 20260903151205 | 74 | 102 | 1.0 | 2.0 | 0.00 | 0.05 | 0.05 | 87 | 1013.1 |
| 20260903150705 | 74 | 224 | 1.0 | 2.0 | 0.00 | 0.05 | 0.05 | 87 | 1013.1 |
| 20260903150206 | 74 | 224 | 0.0 | 2.0 | 0.00 | 0.05 | 0.05 | 86 | 1013.1 |
| 20260903144706 | 74 | 194 | 2.0 | 6.0 | 0.00 | 0.05 | 0.05 | 87 | 1013.0 |
| 20260903144205 | 73 | 216 | 1.0 | 6.0 | 0.00 | 0.05 | 0.05 | 88 | 1013.0 |
| 20260903143205 | 73 | 180 | 2.0 | 6.0 | 0.00 | 0.05 | 0.05 | 87 | 1013.2 |
| 20260903142705 | 73 | 203 | 1.0 | 3.0 | 0.00 | 0.05 | 0.05 | 88 | 1013.2 |
| 20260903142204 | 72 | 179 | 1.0 | 3.0 | 0.00 | 0.05 | 0.05 | 88 | 1013.2 |
| 20260903141705 | 73 | 241 | 2.0 | 6.0 | 0.00 | 0.05 | 0.05 | 89 | 1013.3 |
| 20260903141205 | 72 | 218 | 1.0 | 6.0 | 0.00 | 0.05 | 0.05 | 90 | 1013.3 |
| 20260903140705 | 72 | 142 | 2.0 | 7.0 | 0.00 | 0.05 | 0.05 | 89 | 1013.2 |
| 20260903140205 | 71 | 226 | 1.0 | 3.0 | 0.00 | 0.05 | 0.05 | 89 | 1013.2 |
| 20260903135705 | 71 | 211 | 2.0 | 6.0 | 0.00 | 0.05 | 0.05 | 90 | 1013.2 |
| 20260903135206 | 71 | 201 | 2.0 | 5.0 | 0.00 | 0.05 | 0.05 | 90 | 1013.1 |
| 20260903134704 | 71 | 226 | 1.0 | 3.0 | 0.00 | 0.05 | 0.05 | 91 | 1013.2 |
| 20260903134205 | 70 | 208 | 1.0 | 5.0 | 0.00 | 0.05 | 0.05 | 92 | 1013.2 |
| 20260903133705 | 70 | 215 | 1.0 | 3.0 | 0.00 | 0.05 | 0.05 | 91 | 1013.3 |
| 20260903133204 | 70 | 213 | 2.0 | 5.0 | 0.00 | 0.05 | 0.05 | 90 | 1013.3 |
| 20260903132705 | 70 | 187 | 1.0 | 7.0 | 0.00 | 0.05 | 0.05 | 91 | 1013.3 |
| 20260903132205 | 70 | 153 | 1.0 | 3.0 | 0.00 | 0.05 | 0.05 | 91 | 1013.3 |
| 20260903131704 | 70 | 223 | 1.0 | 2.0 | 0.00 | 0.05 | 0.05 | 92 | 1013.3 |
| 20260903131205 | 69 | 199 | 2.0 | 6.0 | 0.00 | 0.05 | 0.05 | 93 | 1013.2 |
| 20260903130704 | 69 | 240 | 1.0 | 5.0 | 0.00 | 0.05 | 0.05 | 92 | 1013.4 |
| 20260903125705 | 69 | 163 | 2.0 | 6.0 | 0.00 | 0.05 | 0.05 | 92 | 1013.5 |
| 20260903124704 | 69 | 219 | 2.0 | 7.0 | 0.00 | 0.05 | 0.05 | 94 | 1013.5 |
| 20260903124204 | 68 | 266 | 1.0 | 6.0 | 0.00 | 0.05 | 0.05 | 94 | 1013.5 |
| 20260903123205 | 67 | 221 | 1.0 | 7.0 | 0.00 | 0.05 | 0.05 | 95 | 1013.6 |
| 20260903122705 | 67 | 201 | 0.0 | 2.0 | 0.00 | 0.05 | 0.05 | 95 | 1013.6 |
| 20260903122204 | 67 | 201 | 0.0 | 3.0 | 0.00 | 0.05 | 0.05 | 95 | 1013.6 |
| 20260903121705 | 67 | 173 | 0.0 | 1.0 | 0.00 | 0.05 | 0.05 | 95 | 1013.6 |
| 20260903121206 | 67 | 151 | 0.0 | 2.0 | 0.00 | 0.05 | 0.05 | 95 | 1013.6 |
| 20260903120205 | 67 | 170 | 2.0 | 10.0 | 0.00 | 0.05 | 0.05 | 95 | 1013.7 |
| 20260903115704 | 67 | 202 | 1.0 | 3.0 | 0.00 | 0.05 | 0.05 | 95 | 1013.8 |
| 20260903115205 | 67 | 205 | 2.0 | 6.0 | 0.00 | 0.05 | 0.05 | 95 | 1013.8 |
| 20260903114705 | 67 | 194 | 1.0 | 3.0 | 0.00 | 0.05 | 0.05 | 95 | 1013.8 |
| 20260903114204 | 67 | 2 | 1.0 | 2.0 | 0.00 | 0.05 | 0.05 | 95 | 1013.8 |
| 20260903113704 | 67 | 78 | 2.0 | 5.0 | 0.00 | 0.05 | 0.05 | 95 | 1013.7 |
| 20260903113204 | 67 | 338 | 0.0 | 3.0 | 0.00 | 0.05 | 0.05 | 95 | 1013.8 |
| 20260903112204 | 67 | 159 | 1.0 | 5.0 | 0.00 | 0.05 | 0.05 | 95 | 1013.7 |
| 20260903111704 | 67 | 154 | 1.0 | 3.0 | 0.00 | 0.05 | 0.05 | 95 | 1013.7 |
| 20260903111204 | 67 | 160 | 1.0 | 5.0 | 0.00 | 0.05 | 0.05 | 95 | 1013.9 |
| 20260903110705 | 66 | 140 | 0.0 | 8.0 | 0.00 | 0.05 | 0.05 | 95 | 1013.9 |
| 20260903110204 | 66 | 169 | 1.0 | 3.0 | 0.00 | 0.05 | 0.05 | 95 | 1013.8 |
| 20260903105704 | 66 | 197 | 0.0 | 6.0 | 0.00 | 0.05 | 0.05 | 95 | 1013.8 |
| 20260903105204 | 66 | 5 | 0.0 | 2.0 | 0.00 | 0.05 | 0.05 | 95 | 1013.8 |
| 20260903104704 | 66 | 204 | 0.0 | 2.0 | 0.00 | 0.05 | 0.05 | 95 | 1013.9 |
| 20260903104205 | 66 | 214 | 1.0 | 3.0 | 0.00 | 0.05 | 0.05 | 95 | 1013.9 |
| 20260903103205 | 66 | 207 | 0.0 | 0.0 | 0.00 | 0.05 | 0.05 | 95 | 1013.8 |
| 20260903102704 | 66 | 233 | 0.0 | 3.0 | 0.00 | 0.05 | 0.05 | 95 | 1013.8 |
| 20260903101704 | 66 | 179 | 1.0 | 3.0 | 0.00 | 0.05 | 0.05 | 95 | 1013.6 |
| 20260903101204 | 66 | 224 | 1.0 | 3.0 | 0.00 | 0.05 | 0.05 | 95 | 1013.6 |
| 20260903100705 | 66 | 164 | 1.0 | 3.0 | 0.00 | 0.05 | 0.05 | 95 | 1013.4 |
| 20260903100204 | 66 | 186 | 3.0 | 6.0 | 0.00 | 0.05 | 0.05 | 95 | 1013.5 |
| 20260903095704 | 66 | 138 | 1.0 | 3.0 | 0.00 | 0.05 | 0.05 | 95 | 1013.5 |
| 20260903095205 | 66 | 151 | 1.0 | 3.0 | 0.00 | 0.05 | 0.05 | 95 | 1013.4 |
| 20260903094704 | 66 | 152 | 3.0 | 9.0 | 0.00 | 0.05 | 0.05 | 95 | 1013.4 |
| 20260903093704 | 66 | 260 | 1.0 | 7.0 | 0.00 | 0.05 | 0.05 | 95 | 1013.5 |
| 20260903093204 | 66 | 224 | 1.0 | 5.0 | 0.00 | 0.05 | 0.05 | 95 | 1013.4 |
| 20260903092205 | 66 | 181 | 1.0 | 5.0 | 0.00 | 0.05 | 0.05 | 95 | 1013.4 |
| 20260903091704 | 66 | 179 | 1.0 | 6.0 | 0.00 | 0.05 | 0.05 | 95 | 1013.5 |
| 20260903091204 | 66 | 200 | 2.0 | 6.0 | 0.00 | 0.05 | 0.05 | 95 | 1013.5 |
| 20260903090705 | 66 | 226 | 2.0 | 3.0 | 0.00 | 0.05 | 0.05 | 95 | 1013.7 |
| 20260903090205 | 66 | 285 | 2.0 | 7.0 | 0.00 | 0.05 | 0.05 | 95 | 1013.7 |
| 20260903085704 | 66 | 189 | 3.0 | 10.0 | 0.00 | 0.05 | 0.05 | 95 | 1013.6 |
| 20260903085205 | 66 | 205 | 2.0 | 8.0 | 0.00 | 0.05 | 0.05 | 95 | 1013.7 |
| 20260903084204 | 66 | 227 | 2.0 | 3.0 | 0.00 | 0.05 | 0.05 | 95 | 1013.9 |
| 20260903083704 | 66 | 191 | 1.0 | 3.0 | 0.00 | 0.05 | 0.05 | 95 | 1013.8 |
| 20260903083204 | 66 | 217 | 2.0 | 5.0 | 0.00 | 0.05 | 0.05 | 95 | 1013.7 |
| 20260903082204 | 66 | 221 | 2.0 | 6.0 | 0.00 | 0.05 | 0.05 | 94 | 1013.7 |
| 20260903081704 | 66 | 250 | 2.0 | 6.0 | 0.00 | 0.05 | 0.05 | 95 | 1013.8 |
| 20260903081205 | 66 | 231 | 3.0 | 9.0 | 0.00 | 0.05 | 0.05 | 94 | 1013.9 |
| 20260903080705 | 66 | 226 | 2.0 | 8.0 | 0.00 | 0.05 | 0.05 | 94 | 1014.0 |
| 20260903080204 | 66 | 240 | 2.0 | 6.0 | 0.00 | 0.05 | 0.05 | 94 | 1014.0 |
| 20260903075704 | 66 | 239 | 1.0 | 3.0 | 0.00 | 0.05 | 0.05 | 94 | 1014.0 |
| 20260903074204 | 66 | 220 | 2.0 | 3.0 | 0.00 | 0.05 | 0.05 | 95 | 1013.8 |
| 20260903073704 | 66 | 175 | 3.0 | 6.0 | 0.01 | 0.05 | 0.05 | 95 | 1013.7 |
| 20260903073204 | 65 | 297 | 2.0 | 12.0 | 0.01 | 0.05 | 0.05 | 95 | 1013.8 |
| 20260903072204 | 65 | 238 | 4.0 | 13.0 | 0.01 | 0.05 | 0.05 | 95 | 1013.9 |
| 20260903071204 | 65 | 226 | 3.0 | 8.0 | 0.01 | 0.05 | 0.05 | 95 | 1013.7 |
| 20260903070704 | 65 | 217 | 5.0 | 10.0 | 0.01 | 0.05 | 0.05 | 96 | 1013.7 |
| 20260903070204 | 65 | 214 | 2.0 | 7.0 | 0.01 | 0.05 | 0.05 | 95 | 1013.7 |
| 20260903065705 | 64 | 166 | 2.0 | 9.0 | 0.01 | 0.05 | 0.05 | 95 | 1013.7 |
| 20260903065205 | 64 | 189 | 3.0 | 10.0 | 0.01 | 0.05 | 0.05 | 95 | 1013.7 |
| 20260903064704 | 64 | 200 | 3.0 | 9.0 | 0.01 | 0.05 | 0.05 | 96 | 1013.7 |
| 20260903064204 | 64 | 221 | 2.0 | 7.0 | 0.01 | 0.05 | 0.05 | 96 | 1013.8 |
| 20260903063705 | 64 | 220 | 3.0 | 12.0 | 0.00 | 0.04 | 0.04 | 96 | 1013.7 |
| 20260903063205 | 64 | 188 | 3.0 | 7.0 | 0.00 | 0.04 | 0.04 | 96 | 1013.7 |
| 20260903062705 | 64 | 215 | 3.0 | 7.0 | 0.00 | 0.04 | 0.04 | 96 | 1013.6 |
| 20260903062205 | 64 | 190 | 3.0 | 8.0 | 0.00 | 0.04 | 0.04 | 96 | 1013.6 |
| 20260903061704 | 64 | 309 | 5.0 | 16.0 | 0.00 | 0.04 | 0.04 | 96 | 1013.5 |
| 20260903061204 | 64 | 205 | 3.0 | 7.0 | 0.00 | 0.04 | 0.04 | 96 | 1013.5 |
| 20260903060704 | 64 | 176 | 4.0 | 12.0 | 0.00 | 0.04 | 0.04 | 95 | 1013.5 |
| 20260903060204 | 64 | 221 | 2.0 | 6.0 | 0.01 | 0.04 | 0.04 | 95 | 1013.9 |
| 20260903055705 | 64 | 179 | 2.0 | 10.0 | 0.01 | 0.04 | 0.04 | 95 | 1014.0 |
| 20260903055204 | 63 | 199 | 3.0 | 10.0 | 0.01 | 0.04 | 0.04 | 95 | 1013.9 |
| 20260903053704 | 63 | 201 | 6.0 | 14.0 | 0.01 | 0.04 | 0.04 | 95 | 1013.9 |
| 20260903053204 | 63 | 218 | 5.0 | 14.0 | 0.02 | 0.04 | 0.04 | 95 | 1014.2 |
| 20260903052704 | 63 | 194 | 3.0 | 10.0 | 0.02 | 0.04 | 0.04 | 95 | 1014.5 |
| 20260903052204 | 63 | 183 | 4.0 | 12.0 | 0.02 | 0.04 | 0.04 | 95 | 1014.4 |
| 20260903051705 | 63 | 168 | 5.0 | 20.0 | 0.02 | 0.04 | 0.04 | 95 | 1014.2 |
| 20260903051204 | 63 | 167 | 6.0 | 17.0 | 0.03 | 0.04 | 0.04 | 95 | 1014.2 |
| 20260903050705 | 63 | 223 | 6.0 | 20.0 | 0.03 | 0.04 | 0.04 | 96 | 1014.5 |
| 20260903050205 | 63 | 220 | 3.0 | 21.0 | 0.03 | 0.03 | 0.03 | 94 | 1014.6 |
| 20260903045704 | 63 | 229 | 5.0 | 14.0 | 0.03 | 0.03 | 0.03 | 94 | 1014.4 |
| 20260903045204 | 63 | 156 | 3.0 | 12.0 | 0.03 | 0.03 | 0.03 | 94 | 1014.4 |
| 20260903044704 | 63 | 223 | 5.0 | 14.0 | 0.03 | 0.03 | 0.03 | 94 | 1014.5 |
| 20260903043704 | 63 | 162 | 5.0 | 12.0 | 0.03 | 0.03 | 0.03 | 93 | 1014.7 |
| 20260903043204 | 63 | 158 | 4.0 | 10.0 | 0.02 | 0.02 | 0.02 | 93 | 1014.9 |
| 20260903042705 | 63 | 191 | 5.0 | 12.0 | 0.02 | 0.02 | 0.02 | 93 | 1015.0 |
| 20260903042204 | 63 | 173 | 4.0 | 12.0 | 0.02 | 0.02 | 0.02 | 92 | 1015.1 |
| 20260903041705 | 63 | 174 | 3.0 | 18.0 | 0.02 | 0.02 | 0.02 | 91 | 1015.3 |
| 20260903041205 | 64 | 195 | 5.0 | 12.0 | 0.01 | 0.01 | 0.01 | 90 | 1015.5 |
| 20260903040704 | 64 | 179 | 4.0 | 12.0 | 0.01 | 0.01 | 0.01 | 89 | 1015.6 |
| 20260903040204 | 64 | 249 | 3.0 | 7.0 | 0.00 | 0.00 | 0.00 | 88 | 1015.9 |
| 20260903035704 | 64 | 296 | 3.0 | 10.0 | 0.00 | 0.00 | 0.00 | 88 | 1016.2 |
| 20260903035205 | 64 | 194 | 2.0 | 12.0 | 0.00 | 0.00 | 0.00 | 87 | 1015.9 |
| 20260903034704 | 64 | 225 | 3.0 | 5.0 | 0.00 | 0.00 | 0.00 | 86 | 1016.0 |
| 20260903034204 | 65 | 223 | 3.0 | 6.0 | 0.00 | 0.00 | 0.00 | 86 | 1015.9 |
| 20260903033204 | 65 | 219 | 3.0 | 9.0 | 0.00 | 0.00 | 0.00 | 84 | 1015.8 |
| 20260903032704 | 65 | 218 | 3.0 | 12.0 | 0.00 | 0.00 | 0.00 | 84 | 1015.8 |